When you browse on this site, cookies collect data to enhance your experience and personalize the content and advertising you see.
Visit our Privacy Policy to learn more. By continuing to use the site, you agree to this use of cookies and data.
  • In Hungary
  • List of Countries
  • For 7 days
  • Water Temperature
  • Satellite Maps
  • Weather Map
  • News
  • Weather Widgets
  • user-avatar
    Login

    Hourly Weather Santa Maria Ajoloapan

    Today, 21 April, Sunday

    Time Temperature Precipitation Wind Pressure Humidity
    00:00 +15°C° 0 mm 1 mps 575 mmHg 64%
    01:00 +13°C° 0 mm 0 mps 574 mmHg 65%
    02:00 +13°C° 0 mm 0 mps 574 mmHg 65%
    03:00 +14°C° 0 mm 1 mps 574 mmHg 64%
    04:00 +14°C° 0 mm 1 mps 574 mmHg 63%
    05:00 +13°C° 0 mm 1 mps 574 mmHg 62%
    06:00 +16°C° 0 mm 1 mps 575 mmHg 54%
    07:00 +19°C° 0 mm 1 mps 576 mmHg 46%
    08:00 +20°C° 0 mm 2 mps 577 mmHg 37%
    09:00 +21°C° 0 mm 2 mps 578 mmHg 33%
    10:00 +24°C° 0 mm 2 mps 578 mmHg 28%
    11:00 +26°C° 0 mm 2 mps 578 mmHg 23%
    12:00 +27°C° 0 mm 2 mps 578 mmHg 21%
    13:00 +28°C° 0 mm 3 mps 578 mmHg 19%
    14:00 +29°C° 0 mm 3 mps 578 mmHg 17%
    15:00 +28°C° 0 mm 4 mps 578 mmHg 20%
    16:00 +27°C° 0 mm 4 mps 577 mmHg 22%
    17:00 +27°C° 0 mm 5 mps 577 mmHg 25%
    18:00 +25°C° 0 mm 4 mps 577 mmHg 32%
    19:00 +22°C° 0 mm 4 mps 577 mmHg 40%
    20:00 +20°C° 0 mm 3 mps 576 mmHg 47%
    21:00 +20°C° 0 mm 3 mps 576 mmHg 49%
    22:00 +19°C° 0 mm 2 mps 576 mmHg 51%
    23:00 +19°C° 0 mm 1 mps 576 mmHg 53%

    Tomorrow, 22 April, Monday

    Time Temperature Precipitation Wind Pressure Humidity
    00:00 +19°C° 0 mm 1 mps 575 mmHg 55%
    01:00 +18°C° 0 mm 1 mps 575 mmHg 56%
    02:00 +15°C° 0 mm 0 mps 574 mmHg 57%
    03:00 +15°C° 0 mm 0 mps 574 mmHg 58%
    04:00 +16°C° 0 mm 1 mps 574 mmHg 58%
    05:00 +15°C° 0 mm 1 mps 574 mmHg 58%
    06:00 +18°C° 0 mm 1 mps 575 mmHg 51%
    07:00 +19°C° 0 mm 2 mps 576 mmHg 43%
    08:00 +21°C° 0 mm 2 mps 577 mmHg 36%
    09:00 +24°C° 0 mm 2 mps 578 mmHg 31%
    10:00 +25°C° 0 mm 2 mps 578 mmHg 27%
    11:00 +27°C° 0 mm 2 mps 578 mmHg 22%
    12:00 +28°C° 0 mm 2 mps 578 mmHg 20%
    13:00 +29°C° 0 mm 2 mps 578 mmHg 18%
    14:00 +29°C° 0 mm 2 mps 577 mmHg 16%
    15:00 +28°C° 0 mm 3 mps 577 mmHg 20%
    16:00 +27°C° 0 mm 4 mps 576 mmHg 24%
    17:00 +27°C° 0 mm 4 mps 576 mmHg 28%
    18:00 +25°C° 0 mm 4 mps 576 mmHg 32%
    19:00 +24°C° 0 mm 3 mps 576 mmHg 37%
    20:00 +23°C° 0 mm 2 mps 576 mmHg 42%
    21:00 +23°C° 0 mm 2 mps 576 mmHg 45%
    22:00 +22°C° 0 mm 1 mps 576 mmHg 47%
    23:00 +21°C° 0 mm 1 mps 576 mmHg 50%

    Day after tomorrow, 23 April, Tuesday

    Time Temperature Precipitation Wind Pressure Humidity
    00:00 +20°C° 0.1 mm 1 mps 575 mmHg 52%
    01:00 +20°C° 0.1 mm 1 mps 574 mmHg 54%
    02:00 +17°C° 0.1 mm 0 mps 574 mmHg 56%
    03:00 +16°C° 0 mm 0 mps 574 mmHg 56%
    04:00 +18°C° 0 mm 1 mps 573 mmHg 56%
    05:00 +18°C° 0 mm 1 mps 573 mmHg 56%
    06:00 +19°C° 0 mm 1 mps 574 mmHg 49%
    07:00 +21°C° 0 mm 1 mps 575 mmHg 41%
    08:00 +23°C° 0 mm 1 mps 576 mmHg 34%
    09:00 +24°C° 0 mm 1 mps 577 mmHg 29%
    10:00 +26°C° 0 mm 1 mps 577 mmHg 25%
    11:00 +27°C° 0 mm 2 mps 578 mmHg 20%
    12:00 +28°C° 0 mm 2 mps 577 mmHg 19%
    13:00 +28°C° 0 mm 2 mps 577 mmHg 17%
    14:00 +29°C° 0 mm 2 mps 576 mmHg 16%
    15:00 +28°C° 0.3 mm 2 mps 576 mmHg 22%
    16:00 +26°C° 0.3 mm 2 mps 575 mmHg 27%
    17:00 +24°C° 0.3 mm 3 mps 574 mmHg 33%
    18:00 +24°C° 0.1 mm 2 mps 574 mmHg 36%
    19:00 +23°C° 0.1 mm 2 mps 575 mmHg 39%
    20:00 +21°C° 0.1 mm 2 mps 575 mmHg 42%
    21:00 +22°C° 0.1 mm 1 mps 575 mmHg 44%
    22:00 +21°C° 0.1 mm 1 mps 575 mmHg 46%
    23:00 +20°C° 0.1 mm 1 mps 575 mmHg 48%

    24 April, Wednesday

    Time Temperature Precipitation Wind Pressure Humidity
    00:00 +20°C° 0 mm 1 mps 574 mmHg 47%
    01:00 +19°C° 0 mm 2 mps 574 mmHg 47%
    02:00 +18°C° 0 mm 2 mps 573 mmHg 46%
    03:00 +18°C° 0 mm 2 mps 574 mmHg 45%
    04:00 +19°C° 0 mm 1 mps 574 mmHg 44%
    05:00 +19°C° 0 mm 1 mps 574 mmHg 43%
    06:00 +20°C° 0 mm 2 mps 575 mmHg 39%
    07:00 +21°C° 0 mm 2 mps 576 mmHg 34%
    08:00 +23°C° 0 mm 2 mps 577 mmHg 29%
    09:00 +24°C° 0 mm 3 mps 577 mmHg 27%
    10:00 +26°C° 0 mm 3 mps 577 mmHg 24%
    11:00 +27°C° 0 mm 3 mps 577 mmHg 22%
    12:00 +28°C° 0 mm 3 mps 576 mmHg 20%
    13:00 +29°C° 0 mm 4 mps 576 mmHg 18%
    14:00 +30°C° 0 mm 4 mps 576 mmHg 15%
    15:00 +29°C° 0 mm 4 mps 575 mmHg 17%
    16:00 +29°C° 0 mm 4 mps 575 mmHg 18%
    17:00 +28°C° 0 mm 4 mps 575 mmHg 19%
    18:00 +27°C° 0 mm 3 mps 575 mmHg 23%
    19:00 +25°C° 0 mm 2 mps 575 mmHg 27%
    20:00 +23°C° 0 mm 2 mps 575 mmHg 31%
    21:00 +23°C° 0 mm 2 mps 575 mmHg 31%
    22:00 +21°C° 0 mm 2 mps 575 mmHg 31%
    23:00 +21°C° 0 mm 2 mps 575 mmHg 31%

    25 April, Thursday

    Time Temperature Precipitation Wind Pressure Humidity
    00:00 +20°C° 0 mm 2 mps 574 mmHg 31%
    01:00 +19°C° 0 mm 2 mps 573 mmHg 32%
    02:00 +19°C° 0 mm 1 mps 573 mmHg 32%
    03:00 +18°C° 0 mm 1 mps 573 mmHg 32%
    04:00 +16°C° 0 mm 1 mps 573 mmHg 33%
    05:00 +15°C° 0 mm 1 mps 573 mmHg 33%
    06:00 +18°C° 0 mm 1 mps 574 mmHg 30%
    07:00 +20°C° 0 mm 1 mps 575 mmHg 27%
    08:00 +21°C° 0 mm 2 mps 577 mmHg 23%
    09:00 +23°C° 0 mm 2 mps 577 mmHg 22%
    10:00 +24°C° 0 mm 2 mps 577 mmHg 20%
    11:00 +26°C° 0 mm 2 mps 577 mmHg 18%
    12:00 +27°C° 0 mm 2 mps 577 mmHg 17%
    13:00 +28°C° 0 mm 2 mps 577 mmHg 15%
    14:00 +28°C° 0 mm 2 mps 577 mmHg 13%
    15:00 +27°C° 0 mm 3 mps 577 mmHg 21%
    16:00 +26°C° 0 mm 4 mps 576 mmHg 29%
    17:00 +25°C° 0 mm 5 mps 576 mmHg 36%
    18:00 +22°C° 0.9 mm 5 mps 576 mmHg 48%
    19:00 +20°C° 0.9 mm 4 mps 576 mmHg 59%
    20:00 +18°C° 0.9 mm 4 mps 575 mmHg 71%
    21:00 +18°C° 0.5 mm 3 mps 575 mmHg 72%
    22:00 +17°C° 0.5 mm 3 mps 575 mmHg 74%
    23:00 +16°C° 0.5 mm 2 mps 575 mmHg 76%

    26 April, Friday

    Time Temperature Precipitation Wind Pressure Humidity
    00:00 +16°C° 0.4 mm 2 mps 575 mmHg 78%
    01:00 +16°C° 0.4 mm 2 mps 574 mmHg 79%
    02:00 +15°C° 0.4 mm 2 mps 574 mmHg 81%
    03:00 +15°C° 0 mm 2 mps 574 mmHg 83%
    04:00 +14°C° 0 mm 2 mps 574 mmHg 84%
    05:00 +14°C° 0 mm 2 mps 574 mmHg 86%
    06:00 +15°C° 0 mm 2 mps 575 mmHg 77%
    07:00 +17°C° 0 mm 2 mps 576 mmHg 67%
    08:00 +18°C° 0 mm 2 mps 576 mmHg 57%
    09:00 +20°C° 0 mm 2 mps 577 mmHg 50%
    10:00 +21°C° 0 mm 3 mps 577 mmHg 42%
    11:00 +24°C° 0 mm 3 mps 578 mmHg 35%
    12:00 +25°C° 0 mm 4 mps 577 mmHg 34%
    13:00 +25°C° 0 mm 5 mps 577 mmHg 33%
    14:00 +26°C° 0 mm 6 mps 577 mmHg 32%
    15:00 +23°C° 0 mm 6 mps 576 mmHg 38%
    16:00 +22°C° 0 mm 6 mps 576 mmHg 43%
    17:00 +20°C° 0 mm 6 mps 575 mmHg 49%
    18:00 +19°C° 0.1 mm 5 mps 575 mmHg 53%
    19:00 +18°C° 0.1 mm 4 mps 575 mmHg 57%
    20:00 +17°C° 0.1 mm 3 mps 576 mmHg 61%
    21:00 +17°C° 0 mm 2 mps 575 mmHg 64%
    22:00 +16°C° 0 mm 2 mps 575 mmHg 67%
    23:00 +15°C° 0 mm 2 mps 575 mmHg 70%
    Show more